Location: Delettes
(50.6178°N, 2.2123°E)
Time: 15:17:12
(UTC+00:00)

Cosmos 2279 Rocket - Visible Passes

Search period start: 04 August 2021 00:00
Search period end: 14 August 2021 00:00
Orbit: 963 x 980 km, 82.9° (Epoch: 04 August)

Date Brightness Start Highest point End Pass type
(mag) Time Alt. Az. Time Alt. Az. Time Alt. Az.
05 Aug 5.8 19:58:23 10° NNW 20:03:53 34° W 20:09:22 10° SSW visible
06 Aug 6.5 20:23:12 10° NW 20:27:41 21° W 20:32:09 10° SW visible
07 Aug 6.9 20:48:51 10° NW 20:51:19 13° WNW 20:53:47 10° W visible
09 Aug 6.4 19:50:08 10° NNW 19:55:05 26° W 20:00:02 10° SW visible
10 Aug 6.8 20:15:19 10° NW 20:18:47 16° WNW 20:22:14 10° WSW visible
